Regional Weather Roundup
Issued by NWS

Home | Current Version | Previous Version | Graphics & Text | Print | Product List | Glossary On
Versions: 1 2 3 4 5 6 7 8 9 10 11 12 13 14 15 16 17 18 19 20 21 22 23 24 25 26 27 28 29 30 31 32 33 34 35 36 37 38 39 40 41 42 43 44 45 46 47 48 49 50
000
ASUS43 KIND 261459
RWRIN

WEATHER ROUNDUP FOR INDIANA
NATIONAL WEATHER SERVICE INDIANAPOLIS IN
1100 AM EDT MON JUN 26 2017

NOTE: "FAIR" INDICATES FEW OR NO CLOUDS BELOW 12,000 FEET WITH NO
SIGNIFICANT WEATHER AND/OR OBSTRUCTIONS TO VISIBILITY.

* - STATION DOES NOT REPORT WEATHER SUCH AS PRECIPITATION OR FOG.

+ - STATION NOT QUALITY CONTROLLED BY THE NATIONAL WEATHER SERVICE.
    USE DATA WITH CAUTION...ESPECIALLY DEWPOINT AND RELATIVE
    HUMIDITY OBSERVATIONS.

INZ001>003-010>013-019-020-261600-
NORTHWEST INDIANA

CITY           SKY/WX    TMP DP  RH WIND       PRES   REMARKS
GARY /AIRPORT/ MOSUNNY   68  43  40 W12       30.12S
KNOX *+        SUNNY     68  36  30 W10       30.12S
MONTICELLO +   SUNNY     68  47  48 W12       30.14S

$$

LMZ046-743>745-261600-
SOUTHERN LAKE MICHIGAN

STATION/POSITION TIME  TEMP    WIND        PRES    WAVE
                       AIR SEA DIR/SP/G            HT
                 (UTC) (F)     (DEG/KT/KT) (MB)    (FT)
BURNS HARBOR     1440   64     260/ 11/ 13 1020.0S
MICHIGAN CITY    1430   61     250/ 12/ 14   N/A
5NW MICH CITY    1450   62 66  260/ 10/ 14   N/A     3

$$

INZ004-005-014>016-021>024-261600-
NORTH CENTRAL INDIANA

CITY           SKY/WX    TMP DP  RH WIND       PRES   REMARKS
GOSHEN         SUNNY     66  49  54 W15       30.10S
SOUTH BEND     MOSUNNY   65  50  58 W13       30.10S

$$

INZ006>009-017-018-025>027-261600-
NORTHEAST INDIANA

CITY           SKY/WX    TMP DP  RH WIND       PRES   REMARKS
FORT WAYNE     PTSUNNY   67  49  52 W16       30.12F
KENDALLVILLE + CLOUDY    63  49  59 W10       30.10F

$$

INZ028-029-035-036-043>045-051>053-261600-
WEST CENTRAL INDIANA

CITY           SKY/WX    TMP DP  RH WIND       PRES   REMARKS
CRAWFORDSVL +  SUNNY     67  51  57 W9        30.16S
GREENCASTLE +  SUNNY     68  50  52 W5        30.18F
LAFAYETTE      SUNNY     67  51  56 W14       30.15S
TERRE HAUTE    SUNNY     71  50  47 W8        30.18S

$$

INZ030>032-037>040-046>048-054>057-064-065-261600-
CENTRAL INDIANA

CITY           SKY/WX    TMP DP  RH WIND       PRES   REMARKS
ANDERSON         N/A     70  50  49 MISG        N/A
COLUMBUS       SUNNY     66  45  45 NW6       30.18F
GREENWOOD *+   SUNNY     68  47  48 NW9G20    30.18S
INDIANAPOLIS   MOSUNNY   70  50  49 NW13      30.16F
-EAGLE CREEK   MOSUNNY   69  49  48 W10       30.15F
KOKOMO +       SUNNY     67  49  52 NW14      30.14F
MT COMFORT *+  SUNNY     68  50  52 NW12      30.17F
SHELBYVILLE    SUNNY     69  47  45 W10       30.17S

$$

INZ033-034-041-042-049-050-058-059-261600-
EAST CENTRAL INDIANA

CITY           SKY/WX    TMP DP  RH WIND       PRES   REMARKS
MUNCIE         MOSUNNY   68  51  54 NW13      30.15S
RICHMOND +     MOSUNNY   64  50  59 W13G21    30.17S HAZE

$$

INZ060-061-067>069-081>083-085>088-261600-
SOUTHWEST INDIANA

CITY           SKY/WX    TMP DP  RH WIND       PRES   REMARKS
EVANSVILLE     SUNNY     73  49  42 NW6       30.21F
HUNTINGBURG *+ SUNNY     71  53  52 NW7       30.21S

$$

INZ062-063-066-070>080-084-089>092-261600-
SOUTH CENTRAL AND SOUTHEAST INDIANA

CITY           SKY/WX    TMP DP  RH WIND       PRES   REMARKS
BLOOMINGTON    SUNNY     70  50  49 W8        30.18F
MADISON *+     SUNNY     70  46  43 W3        30.21S

$$





USA.gov is the U.S. government's official web portal to all federal, state and local government web resources and services.